[[{"header":{"parameterUnit":"m.s-1","parameterCategory":1,"la1":30.2991,"la2":30.254,"lo1":-89.0895,"lo2":-89.0444,"dy":0.0017,"dx":0.0017,"nx":28,"ny":28,"refTime":"2025-09-13T03:00:00:Z","depth":0,"parameterNumber":2,"parameterNumberName":"U-component_of_WINDS"},"data":[0,0,0,0,0,0,0,0,0,0,0,0,0,0,0,0,0,0,0,0,0,0,0,0,0,0,0,0,0,0,0,0,0,0,0,0,0,0,0,0,0,0,0,0,0,0,0,0,0,0,0,0,0,0,0,0,0,0,-1.4858,-1.486,0,-1.5059,-1.5061,-1.5063,-1.5141,-1.5141,-1.514,-1.514,-1.5345,-1.5351,-1.5357,0,0,0,0,0,0,0,0,0,0,0,0,0,-1.4542,-1.4548,-1.4858,-1.486,-1.4863,-1.5058,-1.5061,-1.5064,-1.5142,-1.5141,-1.514,-1.514,-1.5344,-1.5351,-1.5358,0,0,0,0,0,0,0,0,0,0,0,0,0,-1.4705,-1.4549,-1.4857,-1.4925,-1.4933,-1.5058,-1.5061,-1.5065,-1.5142,-1.5141,-1.514,-1.5139,-1.5341,-1.535,-1.5359,-1.5431,0,0,-1.5386,-1.539,0,0,0,0,0,0,0,0,-1.4695,-1.4716,-1.4913,-1.4921,-1.493,-1.5074,-1.5025,-1.5187,-1.5142,-1.5063,-1.514,-1.5139,-1.5256,-1.5272,-1.5311,-1.544,-1.5449,-1.5387,-1.5392,-1.5396,-1.5399,0,0,0,0,0,0,0,-1.4684,-1.4708,-1.4937,-1.4915,-1.4926,-1.4946,-1.4968,-1.5056,-1.5161,-1.5069,-1.5076,-1.5098,-1.526,-1.5302,-1.5317,-1.5452,-1.5387,-1.5395,-1.54,-1.5404,-1.5651,-1.5652,0,0,0,0,0,0,-1.4661,-1.4698,-1.4931,-1.4943,-1.4808,-1.4952,-1.4977,-1.5029,-1.5161,-1.518,-1.5099,-1.5101,-1.5287,-1.5306,-1.5324,-1.5417,-1.5396,-1.5405,-1.541,-1.565,-1.5651,-1.5653,0,0,0,0,0,0,-1.4654,-1.4682,-1.4923,-1.4823,-1.4855,-1.4958,-1.5016,-1.5033,-1.5075,-1.5183,-1.5202,-1.5122,-1.5288,-1.5312,-1.5404,-1.5426,-1.5409,-1.5417,-1.5649,-1.565,-1.5652,-1.5604,0,0,0,0,0,0,-1.4645,-1.4678,-1.4706,-1.4823,-1.486,-1.4998,-1.5017,-1.5038,-1.509,-1.5095,-1.521,-1.5228,-1.5289,-1.539,-1.5413,-1.5438,-1.5424,-1.5647,-1.5649,-1.5651,-1.5604,-1.5604,-1.5603,0,0,0,0,0,-1.4633,-1.4685,-1.4708,-1.4735,-1.4897,-1.4999,-1.5021,-1.509,-1.5092,-1.5121,-1.519,-1.5224,-1.542,-1.5399,-1.5425,-1.5453,-1.5646,-1.5649,-1.5651,-1.5604,-1.5604,-1.5603,0,0,0,0,0,0,-1.4568,-1.4701,-1.4728,-1.4818,-1.4897,-1.5012,-1.5051,-1.5087,-1.5167,-1.5168,-1.525,-1.5275,-1.5361,-1.5417,-1.5391,-1.553,-1.5535,-1.5543,-1.549,-1.5491,-1.5491,-1.5475,-1.5431,0,0,0,0,0,-1.4564,-1.4636,-1.4749,-1.4818,-1.4856,-1.4947,-1.4994,-1.504,-1.5125,-1.5159,-1.5235,-1.5316,-1.5396,-1.5447,-1.5526,-1.5613,-1.5639,-1.5645,-1.5645,-1.5644,-1.565,-1.57,-1.5704,-1.5661,-1.5661,-1.5661,0,0,-1.4557,-1.4639,-1.4679,-1.4807,-1.4873,-1.4946,-1.4974,-1.505,-1.5105,-1.517,-1.5262,-1.5321,-1.5417,-1.5507,-1.555,-1.5556,-1.5668,-1.5647,-1.5646,-1.5652,-1.5703,-1.5707,-1.5711,-1.5663,-1.5663,-1.5663,0,0,-1.4581,-1.465,-1.4715,-1.4781,-1.4882,-1.4942,-1.4957,-1.5068,-1.511,-1.5203,-1.5254,-1.5321,-1.5457,-1.5523,-1.5575,-1.5625,-1.566,-1.5649,-1.5647,-1.5696,-1.5699,-1.5702,-1.572,-1.5726,-1.5654,-1.5654,-1.5654,0,-1.4559,-1.4671,-1.4744,-1.4817,-1.4872,-1.4935,-1.5002,-1.5063,-1.5184,-1.522,-1.5225,-1.5397,-1.5466,-1.5573,-1.5585,-1.5625,-1.5645,-1.5636,-1.5693,-1.5697,-1.5701,-1.5719,-1.5726,-1.5652,-1.5653,-1.5653,-1.5653,0,-1.4639,-1.4716,-1.4757,-1.4872,-1.4932,-1.5001,-1.5085,-1.5137,-1.5178,-1.5238,-1.5333,-1.5418,-1.5516,-1.5545,-1.5586,-1.5658,-1.5658,-1.5677,-1.5684,-1.5702,-1.572,-1.5728,-1.5649,-1.565,-1.5651,-1.5651,0,0,-1.4626,-1.4782,-1.4796,-1.4849,-1.4965,-1.5026,-1.5099,-1.5195,-1.5238,-1.532,-1.5383,-1.5497,-1.5515,-1.5574,-1.5623,-1.5666,-1.57,-1.568,-1.5683,-1.568,-1.5785,-1.5769,-1.5776,-1.5724,-1.5726,-1.5727,-1.5777,0,-1.4665,-1.4798,-1.4866,-1.497,-1.5042,-1.5104,-1.5167,-1.5246,-1.5304,-1.5374,-1.5439,-1.5518,-1.5536,-1.5572,-1.5616,-1.5686,-1.5722,-1.5684,-1.5784,-1.5787,-1.5757,-1.5786,-1.577,-1.5812,-1.5784,-1.5785,-1.5786,0,-1.4728,-1.481,-1.492,-1.5029,-1.5062,-1.5117,-1.5211,-1.5277,-1.5368,-1.5407,-1.5473,-1.5522,-1.5601,-1.5603,-1.5714,-1.5687,-1.5732,-1.5773,-1.5776,-1.5787,-1.5787,-1.5798,-1.5828,-1.5833,-1.5798,-1.5797,-1.5797,0,-1.4707,-1.4845,-1.4929,-1.4973,-1.5101,-1.5139,-1.5195,-1.5284,-1.5338,-1.542,-1.5456,-1.5546,-1.5596,-1.5665,-1.5737,-1.5732,-1.5841,-1.5849,-1.5877,-1.5875,-1.5896,-1.5894,-1.5933,-1.5926,-1.5926,-1.5926,-1.5925,0,-1.4744,-1.4809,-1.4921,-1.4973,-1.5048,-1.5127,-1.5199,-1.5259,-1.5339,-1.5403,-1.5463,-1.5522,-1.5614,-1.5685,-1.5742,-1.5826,-1.5848,-1.5882,-1.5896,-1.5877,-1.5872,-1.5907,-1.5906,-1.5927,-1.5927,-1.5927,-1.5926,0,-1.4732,-1.4811,-1.4906,-1.5021,-1.5051,-1.5101,-1.5199,-1.5252,-1.5314,-1.5395,-1.5419,-1.5515,-1.5602,-1.5682,-1.5797,-1.5836,-1.592,-1.5939,-1.589,-1.5897,-1.592,-1.5917,-1.5983,-1.5996,-1.5979,-1.598,-1.598,0,-1.475,-1.4802,-1.4922,-1.4969,-1.5023,-1.5099,-1.5155,-1.5234,-1.5289,-1.5397,-1.5437,-1.5528,-1.5605,-1.5742,-1.5823,-1.5912,-1.5932,-1.595,-1.5946,-1.5925,-1.5932,-1.5928,-1.5934,-1.5948,-1.5948,-1.5948,-1.5948,0,-1.4773,-1.4809,-1.4886,-1.4977,-1.5041,-1.5117,-1.5194,-1.523,-1.5324,-1.5383,-1.5473,-1.5533,-1.5651,-1.5741,-1.584,-1.5898,-1.5938,-1.5948,-1.5959,-1.5939,-1.5908,-1.5925,-1.5887,-1.5946,-1.5946,-1.5946,-1.5946,-1.5947,-1.4777,-1.4826,-1.4918,-1.5002,-1.5069,-1.514,-1.5195,-1.5264,-1.534,-1.5442,-1.5485,-1.5576,-1.5667,-1.5803,-1.586,-1.5933,-1.5941,-1.5957,-1.5961,-1.5964,-1.596,-1.5897,-1.5952,-1.5952,-1.5952,-1.5952,-1.5952,0,-1.4802,-1.4865,-1.4941,-1.5048,-1.5114,-1.5147,-1.5235,-1.5288,-1.5368,-1.5448,-1.5523,-1.5627,-1.5715,-1.5803,-1.5896,-1.5938,-1.5959,-1.5959,-1.5957,-1.5969,-1.5948,-1.5929,-1.5941,-1.5941,-1.5941,-1.5941,-1.5941,-1.5941,-1.4823,-1.4908,-1.4955,-1.5074,-1.5137,-1.5226,-1.5273,-1.5339,-1.5404,-1.5517,-1.559,-1.5647,-1.5732,-1.5831,-1.5914,-1.5938,-1.5969,-1.5964,-1.5993,-1.5971,-1.5971,-1.5971,-1.5954,-1.597,-1.597,-1.6009,-1.6009,-1.6009]},{"header":{"parameterUnit":"m.s-1","parameterCategory":1,"la1":30.2991,"la2":30.254,"lo1":-89.0895,"lo2":-89.0444,"dy":0.0017,"dx":0.0017,"nx":28,"ny":28,"refTime":"2025-09-13T03:00:00:Z","depth":0,"parameterNumber":3,"parameterNumberName":"V-component_of_WINDS"},"data":[0,0,0,0,0,0,0,0,0,0,0,0,0,0,0,0,0,0,0,0,0,0,0,0,0,0,0,0,0,0,0,0,0,0,0,0,0,0,0,0,0,0,0,0,0,0,0,0,0,0,0,0,0,0,0,0,0,0,-2.1422,-2.1422,0,-2.1365,-2.1364,-2.1363,-2.1291,-2.129,-2.1288,-2.1287,-2.1227,-2.1226,-2.1226,0,0,0,0,0,0,0,0,0,0,0,0,0,-2.1468,-2.1468,-2.1422,-2.1422,-2.1421,-2.1365,-2.1364,-2.1363,-2.1291,-2.1289,-2.1288,-2.1287,-2.1227,-2.1226,-2.1225,0,0,0,0,0,0,0,0,0,0,0,0,0,-2.1433,-2.1468,-2.1423,-2.1378,-2.1374,-2.1365,-2.1364,-2.1363,-2.1291,-2.1289,-2.1288,-2.1286,-2.1227,-2.1226,-2.1225,-2.1255,0,0,-2.1223,-2.1223,0,0,0,0,0,0,0,0,-2.1435,-2.1432,-2.1385,-2.1381,-2.1376,-2.1333,-2.1358,-2.1327,-2.1292,-2.1322,-2.1287,-2.1285,-2.1263,-2.1259,-2.1252,-2.1252,-2.125,-2.1223,-2.1222,-2.1222,-2.1222,0,0,0,0,0,0,0,-2.1438,-2.1434,-2.1399,-2.1385,-2.1379,-2.136,-2.1354,-2.1351,-2.1303,-2.132,-2.1314,-2.1308,-2.126,-2.1253,-2.125,-2.1249,-2.1223,-2.1222,-2.1222,-2.1221,-2.1269,-2.127,0,0,0,0,0,0,-2.1447,-2.1436,-2.1401,-2.1398,-2.1402,-2.1361,-2.1353,-2.1349,-2.1303,-2.1295,-2.131,-2.1305,-2.1256,-2.1251,-2.1248,-2.1279,-2.1222,-2.1221,-2.1221,-2.1267,-2.1269,-2.1271,0,0,0,0,0,0,-2.1448,-2.1445,-2.1404,-2.1415,-2.1409,-2.1362,-2.1357,-2.1348,-2.1341,-2.1296,-2.1287,-2.1312,-2.1254,-2.1249,-2.1254,-2.1276,-2.1221,-2.122,-2.1265,-2.1268,-2.127,-2.1342,0,0,0,0,0,0,-2.145,-2.1446,-2.1457,-2.1416,-2.1408,-2.1411,-2.1359,-2.1349,-2.134,-2.1333,-2.1295,-2.1287,-2.1252,-2.1255,-2.1253,-2.1274,-2.1219,-2.1263,-2.1266,-2.1269,-2.1338,-2.1347,-2.1355,0,0,0,0,0,-2.1452,-2.1479,-2.1458,-2.1454,-2.1422,-2.1413,-2.1408,-2.1368,-2.1342,-2.1353,-2.1324,-2.1288,-2.1274,-2.1256,-2.1253,-2.1274,-2.1261,-2.1265,-2.1269,-2.1334,-2.1345,-2.1355,0,0,0,0,0,0,-2.1524,-2.1473,-2.1449,-2.1464,-2.1443,-2.1401,-2.1413,-2.1382,-2.1367,-2.1362,-2.1312,-2.1304,-2.1314,-2.1294,-2.1276,-2.13,-2.1262,-2.1266,-2.1313,-2.1323,-2.1331,-2.1336,-2.1219,0,0,0,0,0,-2.1541,-2.1539,-2.1495,-2.1512,-2.1503,-2.146,-2.1455,-2.1425,-2.1402,-2.1392,-2.1363,-2.1341,-2.1331,-2.1326,-2.1314,-2.1334,-2.1324,-2.1347,-2.1355,-2.1363,-2.1366,-2.1374,-2.1384,-2.1284,-2.1284,-2.1284,0,0,-2.1578,-2.155,-2.1551,-2.1526,-2.1506,-2.1504,-2.1453,-2.1453,-2.1451,-2.1392,-2.1395,-2.1373,-2.1344,-2.1356,-2.136,-2.134,-2.1392,-2.1368,-2.1374,-2.1373,-2.1379,-2.1389,-2.1397,-2.1286,-2.1286,-2.1286,0,0,-2.1643,-2.1622,-2.1634,-2.1615,-2.1586,-2.1557,-2.156,-2.1522,-2.1505,-2.1507,-2.1463,-2.1459,-2.1444,-2.1425,-2.1414,-2.1471,-2.1437,-2.1468,-2.1514,-2.1522,-2.153,-2.1537,-2.1557,-2.1565,-2.1472,-2.1472,-2.1472,0,-2.1691,-2.1687,-2.1644,-2.1647,-2.1637,-2.1584,-2.1595,-2.1579,-2.1548,-2.1542,-2.152,-2.1499,-2.1476,-2.1483,-2.1497,-2.1489,-2.149,-2.1473,-2.1533,-2.1539,-2.1544,-2.1563,-2.1571,-2.1476,-2.1476,-2.1475,-2.1475,0,-2.1748,-2.1746,-2.1759,-2.173,-2.1722,-2.1729,-2.1686,-2.1682,-2.1654,-2.1627,-2.1629,-2.16,-2.1581,-2.1581,-2.1553,-2.1583,-2.1571,-2.1542,-2.1503,-2.1559,-2.1575,-2.1582,-2.1482,-2.148,-2.1479,-2.1478,0,0,-2.1857,-2.1805,-2.181,-2.1796,-2.176,-2.1757,-2.1761,-2.1744,-2.1741,-2.1721,-2.1723,-2.1711,-2.1683,-2.167,-2.1639,-2.1647,-2.1693,-2.1616,-2.1614,-2.1631,-2.1724,-2.1747,-2.1756,-2.1671,-2.1672,-2.1673,-2.1726,0,-2.1915,-2.1921,-2.1882,-2.1897,-2.1894,-2.1843,-2.1847,-2.1825,-2.1799,-2.1792,-2.1764,-2.1756,-2.172,-2.1712,-2.1717,-2.1687,-2.1711,-2.1682,-2.1671,-2.1671,-2.168,-2.1764,-2.1789,-2.1841,-2.1733,-2.1734,-2.1734,0,-2.1984,-2.1969,-2.1984,-2.1946,-2.1944,-2.1948,-2.1928,-2.1922,-2.1895,-2.1876,-2.1862,-2.1827,-2.1827,-2.179,-2.1789,-2.1771,-2.1763,-2.1748,-2.1749,-2.1747,-2.1707,-2.1764,-2.1856,-2.1864,-2.1744,-2.1743,-2.1743,0,-2.2062,-2.2045,-2.2051,-2.2041,-2.1998,-2.2002,-2.1984,-2.1955,-2.1947,-2.1929,-2.1923,-2.1906,-2.1896,-2.1883,-2.1843,-2.182,-2.1847,-2.1807,-2.1831,-2.1832,-2.1839,-2.1839,-2.1931,-2.1835,-2.1835,-2.1834,-2.1834,0,-2.2131,-2.2143,-2.2086,-2.209,-2.2101,-2.2055,-2.2067,-2.2044,-2.2019,-2.2017,-2.1971,-2.197,-2.1918,-2.1911,-2.188,-2.1884,-2.188,-2.1864,-2.1856,-2.1868,-2.187,-2.1863,-2.1859,-2.1836,-2.1836,-2.1836,-2.1835,0,-2.222,-2.2183,-2.2187,-2.2145,-2.2135,-2.2145,-2.2109,-2.211,-2.2082,-2.208,-2.2077,-2.2032,-2.2021,-2.1981,-2.196,-2.1939,-2.1952,-2.1936,-2.1962,-2.1956,-2.1982,-2.1981,-2.2073,-2.2083,-2.1981,-2.1982,-2.1982,0,-2.2267,-2.2275,-2.2234,-2.223,-2.2214,-2.2208,-2.2199,-2.2154,-2.2147,-2.2117,-2.2122,-2.2107,-2.2094,-2.2078,-2.2043,-2.2027,-2.2009,-2.2043,-2.2007,-2.2019,-2.201,-2.201,-2.201,-2.2051,-2.2053,-2.2054,-2.2055,0,-2.2354,-2.2335,-2.2325,-2.2308,-2.2299,-2.2283,-2.2264,-2.2263,-2.2213,-2.2207,-2.2196,-2.2185,-2.2164,-2.2149,-2.2127,-2.2107,-2.2072,-2.2066,-2.2071,-2.2084,-2.2098,-2.2091,-2.1983,-2.2064,-2.2063,-2.2063,-2.2062,-2.2062,-2.2423,-2.2427,-2.2399,-2.2389,-2.2371,-2.2354,-2.2354,-2.2325,-2.2315,-2.2295,-2.2269,-2.2261,-2.2232,-2.2199,-2.2181,-2.2173,-2.2154,-2.2161,-2.2163,-2.2165,-2.2171,-2.21,-2.2169,-2.2169,-2.2168,-2.2168,-2.2168,0,-2.2507,-2.2487,-2.2478,-2.2454,-2.2446,-2.2414,-2.2392,-2.2387,-2.2381,-2.2358,-2.2345,-2.2331,-2.2317,-2.2281,-2.2263,-2.2264,-2.2247,-2.2261,-2.226,-2.2256,-2.2189,-2.2187,-2.2274,-2.2274,-2.2274,-2.2274,-2.2274,-2.2274,-2.2551,-2.2556,-2.2533,-2.2529,-2.2508,-2.25,-2.249,-2.2474,-2.2456,-2.2443,-2.2431,-2.2408,-2.2379,-2.2359,-2.2344,-2.2334,-2.2329,-2.2348,-2.2332,-2.2271,-2.2261,-2.2251,-2.2249,-2.2347,-2.2347,-2.2399,-2.24,-2.24]}]]